Date_Time,Julian_Date,Latitude,Longitude,Instrument_Depth,Water_Salinity
(yyyy-mm-dd hh:mn:ss UTC),(JD),(+ deg. North),(+ deg. East),(m),(ppt)
1984-01-07 18:00:00 UTC,2445707.250000,29.6650,-93.4789,0037,0.2910
1984-01-07 18:30:00 UTC,2445707.270833,29.6650,-93.4789,0037,0.2900
1984-01-07 19:00:00 UTC,2445707.291667,29.6650,-93.4789,0037,0.2910
1984-01-07 19:30:00 UTC,2445707.312500,29.6650,-93.4789,0037,0.2910
1984-01-07 20:00:00 UTC,2445707.333333,29.6650,-93.4789,0037,0.2910
1984-01-07 20:30:00 UTC,2445707.354167,29.6650,-93.4789,0037,0.2910
1984-01-07 21:00:00 UTC,2445707.375000,29.6650,-93.4789,0037,0.2910
1984-01-07 21:30:00 UTC,2445707.395833,29.6650,-93.4789,0037,0.2910
1984-01-07 22:00:00 UTC,2445707.416667,29.6650,-93.4789,0037,0.2910
1984-01-07 22:30:00 UTC,2445707.437500,29.6650,-93.4789,0037,0.2900
1984-01-07 23:00:00 UTC,2445707.458333,29.6650,-93.4789,0037,0.2900
1984-01-07 23:30:00 UTC,2445707.479167,29.6650,-93.4789,0037,0.2900
1984-01-08 00:00:00 UTC,2445707.500000,29.6650,-93.4789,0037,0.2890
1984-01-08 00:30:00 UTC,2445707.520833,29.6650,-93.4789,0037,0.2890
1984-01-08 01:00:00 UTC,2445707.541667,29.6650,-93.4789,0037,0.2890
1984-01-08 01:30:00 UTC,2445707.562500,29.6650,-93.4789,0037,0.2890
1984-01-08 02:00:00 UTC,2445707.583333,29.6650,-93.4789,0037,0.2890
1984-01-08 02:30:00 UTC,2445707.604167,29.6650,-93.4789,0037,0.2890
1984-01-08 03:00:00 UTC,2445707.625000,29.6650,-93.4789,0037,0.2890
1984-01-08 03:30:00 UTC,2445707.645833,29.6650,-93.4789,0037,0.2890
1984-01-08 04:00:00 UTC,2445707.666667,29.6650,-93.4789,0037,0.2890
1984-01-08 04:30:00 UTC,2445707.687500,29.6650,-93.4789,0037,0.2900
1984-01-08 05:00:00 UTC,2445707.708333,29.6650,-93.4789,0037,0.2900
1984-01-08 05:30:00 UTC,2445707.729167,29.6650,-93.4789,0037,0.2900
1984-01-08 06:00:00 UTC,2445707.750000,29.6650,-93.4789,0037,0.2910
1984-01-08 06:30:00 UTC,2445707.770833,29.6650,-93.4789,0037,0.2910
1984-01-08 07:00:00 UTC,2445707.791667,29.6650,-93.4789,0037,0.2910
1984-01-08 07:30:00 UTC,2445707.812500,29.6650,-93.4789,0037,0.2910
1984-01-08 08:00:00 UTC,2445707.833333,29.6650,-93.4789,0037,0.2910
1984-01-08 08:30:00 UTC,2445707.854167,29.6650,-93.4789,0037,0.2910
1984-01-08 09:00:00 UTC,2445707.875000,29.6650,-93.4789,0037,0.2910
1984-01-08 09:30:00 UTC,2445707.895833,29.6650,-93.4789,0037,0.2910
1984-01-08 10:00:00 UTC,2445707.916667,29.6650,-93.4789,0037,0.2910
1984-01-08 10:30:00 UTC,2445707.937500,29.6650,-93.4789,0037,0.2890
1984-01-08 11:00:00 UTC,2445707.958333,29.6650,-93.4789,0037,0.2880
1984-01-08 11:30:00 UTC,2445707.979167,29.6650,-93.4789,0037,0.2880
1984-01-08 12:00:00 UTC,2445708.000000,29.6650,-93.4789,0037,0.2900
1984-01-08 12:30:00 UTC,2445708.020833,29.6650,-93.4789,0037,0.2910
1984-01-08 13:00:00 UTC,2445708.041667,29.6650,-93.4789,0037,0.2910
1984-01-08 13:30:00 UTC,2445708.062500,29.6650,-93.4789,0037,0.2910
1984-01-08 14:00:00 UTC,2445708.083333,29.6650,-93.4789,0037,0.2910
1984-01-08 14:30:00 UTC,2445708.104167,29.6650,-93.4789,0037,0.2910
1984-01-08 15:00:00 UTC,2445708.125000,29.6650,-93.4789,0037,0.2920
1984-01-08 15:30:00 UTC,2445708.145833,29.6650,-93.4789,0037,0.2930
1984-01-08 16:00:00 UTC,2445708.166667,29.6650,-93.4789,0037,0.2920
1984-01-08 16:30:00 UTC,2445708.187500,29.6650,-93.4789,0037,0.2930
1984-01-08 17:00:00 UTC,2445708.208333,29.6650,-93.4789,0037,0.2930
1984-01-08 17:30:00 UTC,2445708.229167,29.6650,-93.4789,0037,0.2930
1984-01-08 18:00:00 UTC,2445708.250000,29.6650,-93.4789,0037,0.2900
1984-01-08 18:30:00 UTC,2445708.270833,29.6650,-93.4789,0037,0.2870
1984-01-08 19:00:00 UTC,2445708.291667,29.6650,-93.4789,0037,0.2830
1984-01-08 19:30:00 UTC,2445708.312500,29.6650,-93.4789,0037,0.2810
1984-01-08 20:00:00 UTC,2445708.333333,29.6650,-93.4789,0037,0.2810
1984-01-08 20:30:00 UTC,2445708.354167,29.6650,-93.4789,0037,0.2800
1984-01-08 21:00:00 UTC,2445708.375000,29.6650,-93.4789,0037,0.2780
1984-01-08 21:30:00 UTC,2445708.395833,29.6650,-93.4789,0037,0.2770
1984-01-08 22:00:00 UTC,2445708.416667,29.6650,-93.4789,0037,0.2770
1984-01-08 22:30:00 UTC,2445708.437500,29.6650,-93.4789,0037,0.2770
1984-01-08 23:00:00 UTC,2445708.458333,29.6650,-93.4789,0037,0.2770
1984-01-08 23:30:00 UTC,2445708.479167,29.6650,-93.4789,0037,0.2770
1984-01-09 00:00:00 UTC,2445708.500000,29.6650,-93.4789,0037,0.2770
1984-01-09 00:30:00 UTC,2445708.520833,29.6650,-93.4789,0037,0.2770
1984-01-09 01:00:00 UTC,2445708.541667,29.6650,-93.4789,0037,0.2770
1984-01-09 01:30:00 UTC,2445708.562500,29.6650,-93.4789,0037,0.2770
1984-01-09 02:00:00 UTC,2445708.583333,29.6650,-93.4789,0037,0.2780
1984-01-09 02:30:00 UTC,2445708.604167,29.6650,-93.4789,0037,0.2780
1984-01-09 03:00:00 UTC,2445708.625000,29.6650,-93.4789,0037,0.2780
1984-01-09 03:30:00 UTC,2445708.645833,29.6650,-93.4789,0037,0.2780
1984-01-09 04:00:00 UTC,2445708.666667,29.6650,-93.4789,0037,0.2770
1984-01-09 04:30:00 UTC,2445708.687500,29.6650,-93.4789,0037,0.2780
1984-01-09 05:00:00 UTC,2445708.708333,29.6650,-93.4789,0037,0.2780
1984-01-09 05:30:00 UTC,2445708.729167,29.6650,-93.4789,0037,0.2770
1984-01-09 06:00:00 UTC,2445708.750000,29.6650,-93.4789,0037,0.2770
1984-01-09 06:30:00 UTC,2445708.770833,29.6650,-93.4789,0037,0.2770
1984-01-09 07:00:00 UTC,2445708.791667,29.6650,-93.4789,0037,0.2770
1984-01-09 07:30:00 UTC,2445708.812500,29.6650,-93.4789,0037,0.2760
1984-01-09 08:00:00 UTC,2445708.833333,29.6650,-93.4789,0037,0.2750
1984-01-09 08:30:00 UTC,2445708.854167,29.6650,-93.4789,0037,0.2730
1984-01-09 09:00:00 UTC,2445708.875000,29.6650,-93.4789,0037,0.2720
1984-01-09 09:30:00 UTC,2445708.895833,29.6650,-93.4789,0037,0.2700
1984-01-09 10:00:00 UTC,2445708.916667,29.6650,-93.4789,0037,0.2700
1984-01-09 10:30:00 UTC,2445708.937500,29.6650,-93.4789,0037,0.2700
1984-01-09 11:00:00 UTC,2445708.958333,29.6650,-93.4789,0037,0.2710
1984-01-09 11:30:00 UTC,2445708.979167,29.6650,-93.4789,0037,0.2730
1984-01-09 12:00:00 UTC,2445709.000000,29.6650,-93.4789,0037,0.2750
1984-01-09 12:30:00 UTC,2445709.020833,29.6650,-93.4789,0037,0.2760
1984-01-09 13:00:00 UTC,2445709.041667,29.6650,-93.4789,0037,0.2770
1984-01-09 13:30:00 UTC,2445709.062500,29.6650,-93.4789,0037,0.2780
1984-01-09 14:00:00 UTC,2445709.083333,29.6650,-93.4789,0037,0.2780
1984-01-09 14:30:00 UTC,2445709.104167,29.6650,-93.4789,0037,0.2790
1984-01-09 15:00:00 UTC,2445709.125000,29.6650,-93.4789,0037,0.2780
1984-01-09 15:30:00 UTC,2445709.145833,29.6650,-93.4789,0037,0.2770
1984-01-09 16:00:00 UTC,2445709.166667,29.6650,-93.4789,0037,0.2760
1984-01-09 16:30:00 UTC,2445709.187500,29.6650,-93.4789,0037,0.2740
1984-01-09 17:00:00 UTC,2445709.208333,29.6650,-93.4789,0037,0.2710
1984-01-09 17:30:00 UTC,2445709.229167,29.6650,-93.4789,0037,0.2690
1984-01-09 18:00:00 UTC,2445709.250000,29.6650,-93.4789,0037,0.2680
1984-01-09 18:30:00 UTC,2445709.270833,29.6650,-93.4789,0037,0.2680
1984-01-09 19:00:00 UTC,2445709.291667,29.6650,-93.4789,0037,0.2690
1984-01-09 19:30:00 UTC,2445709.312500,29.6650,-93.4789,0037,0.2690
1984-01-09 20:00:00 UTC,2445709.333333,29.6650,-93.4789,0037,0.2700
1984-01-09 20:30:00 UTC,2445709.354167,29.6650,-93.4789,0037,0.2710
1984-01-09 21:00:00 UTC,2445709.375000,29.6650,-93.4789,0037,0.2720
1984-01-09 21:30:00 UTC,2445709.395833,29.6650,-93.4789,0037,0.2720
1984-01-09 22:00:00 UTC,2445709.416667,29.6650,-93.4789,0037,0.2710
1984-01-09 22:30:00 UTC,2445709.437500,29.6650,-93.4789,0037,0.2720
1984-01-09 23:00:00 UTC,2445709.458333,29.6650,-93.4789,0037,0.2720
1984-01-09 23:30:00 UTC,2445709.479167,29.6650,-93.4789,0037,0.2730
1984-01-10 00:00:00 UTC,2445709.500000,29.6650,-93.4789,0037,0.2730
1984-01-10 00:30:00 UTC,2445709.520833,29.6650,-93.4789,0037,0.2740
1984-01-10 01:00:00 UTC,2445709.541667,29.6650,-93.4789,0037,0.2740
1984-01-10 01:30:00 UTC,2445709.562500,29.6650,-93.4789,0037,0.2740
1984-01-10 02:00:00 UTC,2445709.583333,29.6650,-93.4789,0037,0.2740
1984-01-10 02:30:00 UTC,2445709.604167,29.6650,-93.4789,0037,0.2730
1984-01-10 03:00:00 UTC,2445709.625000,29.6650,-93.4789,0037,0.2730
1984-01-10 03:30:00 UTC,2445709.645833,29.6650,-93.4789,0037,0.2730
1984-01-10 04:00:00 UTC,2445709.666667,29.6650,-93.4789,0037,0.2730
1984-01-10 04:30:00 UTC,2445709.687500,29.6650,-93.4789,0037,0.2730
1984-01-10 05:00:00 UTC,2445709.708333,29.6650,-93.4789,0037,0.2730
1984-01-10 05:30:00 UTC,2445709.729167,29.6650,-93.4789,0037,0.2730
1984-01-10 06:00:00 UTC,2445709.750000,29.6650,-93.4789,0037,0.2730
1984-01-10 06:30:00 UTC,2445709.770833,29.6650,-93.4789,0037,0.2730
1984-01-10 07:00:00 UTC,2445709.791667,29.6650,-93.4789,0037,0.2730
1984-01-10 07:30:00 UTC,2445709.812500,29.6650,-93.4789,0037,0.2730
1984-01-10 08:00:00 UTC,2445709.833333,29.6650,-93.4789,0037,0.2730
1984-01-10 08:30:00 UTC,2445709.854167,29.6650,-93.4789,0037,0.2730
1984-01-10 09:00:00 UTC,2445709.875000,29.6650,-93.4789,0037,0.2730
1984-01-10 09:30:00 UTC,2445709.895833,29.6650,-93.4789,0037,0.2720
1984-01-10 10:00:00 UTC,2445709.916667,29.6650,-93.4789,0037,0.2720
1984-01-10 10:30:00 UTC,2445709.937500,29.6650,-93.4789,0037,0.2720
1984-01-10 11:00:00 UTC,2445709.958333,29.6650,-93.4789,0037,0.2720
1984-01-10 11:30:00 UTC,2445709.979167,29.6650,-93.4789,0037,0.2710
1984-01-10 12:00:00 UTC,2445710.000000,29.6650,-93.4789,0037,0.2690
1984-01-10 12:30:00 UTC,2445710.020833,29.6650,-93.4789,0037,0.2660
1984-01-10 13:00:00 UTC,2445710.041667,29.6650,-93.4789,0037,0.2640
1984-01-10 13:30:00 UTC,2445710.062500,29.6650,-93.4789,0037,0.2630
1984-01-10 14:00:00 UTC,2445710.083333,29.6650,-93.4789,0037,0.2630
1984-01-10 14:30:00 UTC,2445710.104167,29.6650,-93.4789,0037,0.2630
1984-01-10 15:00:00 UTC,2445710.125000,29.6650,-93.4789,0037,0.2620
1984-01-10 15:30:00 UTC,2445710.145833,29.6650,-93.4789,0037,0.2620
1984-01-10 16:00:00 UTC,2445710.166667,29.6650,-93.4789,0037,0.2610
1984-01-10 16:30:00 UTC,2445710.187500,29.6650,-93.4789,0037,0.2610
1984-01-10 17:00:00 UTC,2445710.208333,29.6650,-93.4789,0037,0.2610
1984-01-10 17:30:00 UTC,2445710.229167,29.6650,-93.4789,0037,0.2610
1984-01-10 18:00:00 UTC,2445710.250000,29.6650,-93.4789,0037,0.2620
1984-01-10 18:30:00 UTC,2445710.270833,29.6650,-93.4789,0037,0.2620
1984-01-10 19:00:00 UTC,2445710.291667,29.6650,-93.4789,0037,0.2620
1984-01-10 19:30:00 UTC,2445710.312500,29.6650,-93.4789,0037,0.2620
1984-01-10 20:00:00 UTC,2445710.333333,29.6650,-93.4789,0037,0.2620
1984-01-10 20:30:00 UTC,2445710.354167,29.6650,-93.4789,0037,0.2620
1984-01-10 21:00:00 UTC,2445710.375000,29.6650,-93.4789,0037,0.2610
1984-01-10 21:30:00 UTC,2445710.395833,29.6650,-93.4789,0037,0.2610
1984-01-10 22:00:00 UTC,2445710.416667,29.6650,-93.4789,0037,0.2600
1984-01-10 22:30:00 UTC,2445710.437500,29.6650,-93.4789,0037,0.2590
1984-01-10 23:00:00 UTC,2445710.458333,29.6650,-93.4789,0037,0.2590
1984-01-10 23:30:00 UTC,2445710.479167,29.6650,-93.4789,0037,0.2590
1984-01-11 00:00:00 UTC,2445710.500000,29.6650,-93.4789,0037,0.2590
1984-01-11 00:30:00 UTC,2445710.520833,29.6650,-93.4789,0037,0.2590
1984-01-11 01:00:00 UTC,2445710.541667,29.6650,-93.4789,0037,0.2600
1984-01-11 01:30:00 UTC,2445710.562500,29.6650,-93.4789,0037,0.2600
1984-01-11 02:00:00 UTC,2445710.583333,29.6650,-93.4789,0037,0.2590
1984-01-11 02:30:00 UTC,2445710.604167,29.6650,-93.4789,0037,0.2590
1984-01-11 03:00:00 UTC,2445710.625000,29.6650,-93.4789,0037,0.2590
1984-01-11 03:30:00 UTC,2445710.645833,29.6650,-93.4789,0037,0.2590
1984-01-11 04:00:00 UTC,2445710.666667,29.6650,-93.4789,0037,0.2590
1984-01-11 04:30:00 UTC,2445710.687500,29.6650,-93.4789,0037,0.2590
1984-01-11 05:00:00 UTC,2445710.708333,29.6650,-93.4789,0037,0.2590
1984-01-11 05:30:00 UTC,2445710.729167,29.6650,-93.4789,0037,0.2590
1984-01-11 06:00:00 UTC,2445710.750000,29.6650,-93.4789,0037,0.2590
1984-01-11 06:30:00 UTC,2445710.770833,29.6650,-93.4789,0037,0.2590
1984-01-11 07:00:00 UTC,2445710.791667,29.6650,-93.4789,0037,0.2590
1984-01-11 07:30:00 UTC,2445710.812500,29.6650,-93.4789,0037,0.2590
1984-01-11 08:00:00 UTC,2445710.833333,29.6650,-93.4789,0037,0.2590
1984-01-11 08:30:00 UTC,2445710.854167,29.6650,-93.4789,0037,0.2590
1984-01-11 09:00:00 UTC,2445710.875000,29.6650,-93.4789,0037,0.2590
1984-01-11 09:30:00 UTC,2445710.895833,29.6650,-93.4789,0037,0.2580
1984-01-11 10:00:00 UTC,2445710.916667,29.6650,-93.4789,0037,0.2580
1984-01-11 10:30:00 UTC,2445710.937500,29.6650,-93.4789,0037,0.2580
1984-01-11 11:00:00 UTC,2445710.958333,29.6650,-93.4789,0037,0.2580
1984-01-11 11:30:00 UTC,2445710.979167,29.6650,-93.4789,0037,0.2590
1984-01-11 12:00:00 UTC,2445711.000000,29.6650,-93.4789,0037,0.2590
1984-01-11 12:30:00 UTC,2445711.020833,29.6650,-93.4789,0037,0.2590
1984-01-11 13:00:00 UTC,2445711.041667,29.6650,-93.4789,0037,0.2590
1984-01-11 13:30:00 UTC,2445711.062500,29.6650,-93.4789,0037,0.2580
1984-01-11 14:00:00 UTC,2445711.083333,29.6650,-93.4789,0037,0.2580
1984-01-11 14:30:00 UTC,2445711.104167,29.6650,-93.4789,0037,0.2580
1984-01-11 15:00:00 UTC,2445711.125000,29.6650,-93.4789,0037,0.2590
1984-01-11 15:30:00 UTC,2445711.145833,29.6650,-93.4789,0037,0.2590
1984-01-11 16:00:00 UTC,2445711.166667,29.6650,-93.4789,0037,0.2590
1984-01-11 16:30:00 UTC,2445711.187500,29.6650,-93.4789,0037,0.2590
1984-01-11 17:00:00 UTC,2445711.208333,29.6650,-93.4789,0037,0.2590
1984-01-11 17:30:00 UTC,2445711.229167,29.6650,-93.4789,0037,0.2590
1984-01-11 18:00:00 UTC,2445711.250000,29.6650,-93.4789,0037,0.2590
1984-01-11 18:30:00 UTC,2445711.270833,29.6650,-93.4789,0037,0.2590
1984-01-11 19:00:00 UTC,2445711.291667,29.6650,-93.4789,0037,0.2590
1984-01-11 19:30:00 UTC,2445711.312500,29.6650,-93.4789,0037,0.2590
1984-01-11 20:00:00 UTC,2445711.333333,29.6650,-93.4789,0037,0.2590
1984-01-11 20:30:00 UTC,2445711.354167,29.6650,-93.4789,0037,0.2590
1984-01-11 21:00:00 UTC,2445711.375000,29.6650,-93.4789,0037,0.2590
1984-01-11 21:30:00 UTC,2445711.395833,29.6650,-93.4789,0037,0.2590
1984-01-11 22:00:00 UTC,2445711.416667,29.6650,-93.4789,0037,0.2580
1984-01-11 22:30:00 UTC,2445711.437500,29.6650,-93.4789,0037,0.2590
1984-01-11 23:00:00 UTC,2445711.458333,29.6650,-93.4789,0037,0.2590
1984-01-11 23:30:00 UTC,2445711.479167,29.6650,-93.4789,0037,0.2600
1984-01-12 00:00:00 UTC,2445711.500000,29.6650,-93.4789,0037,0.2610
1984-01-12 00:30:00 UTC,2445711.520833,29.6650,-93.4789,0037,0.2610
1984-01-12 01:00:00 UTC,2445711.541667,29.6650,-93.4789,0037,0.2610
1984-01-12 01:30:00 UTC,2445711.562500,29.6650,-93.4789,0037,0.2600
1984-01-12 02:00:00 UTC,2445711.583333,29.6650,-93.4789,0037,0.2600
1984-01-12 02:30:00 UTC,2445711.604167,29.6650,-93.4789,0037,0.2600
1984-01-12 03:00:00 UTC,2445711.625000,29.6650,-93.4789,0037,0.2590
1984-01-12 03:30:00 UTC,2445711.645833,29.6650,-93.4789,0037,0.2590
1984-01-12 04:00:00 UTC,2445711.666667,29.6650,-93.4789,0037,0.2590
1984-01-12 04:30:00 UTC,2445711.687500,29.6650,-93.4789,0037,0.2590
1984-01-12 05:00:00 UTC,2445711.708333,29.6650,-93.4789,0037,0.2600
1984-01-12 05:30:00 UTC,2445711.729167,29.6650,-93.4789,0037,0.2600
1984-01-12 06:00:00 UTC,2445711.750000,29.6650,-93.4789,0037,0.2600
1984-01-12 06:30:00 UTC,2445711.770833,29.6650,-93.4789,0037,0.2600
1984-01-12 07:00:00 UTC,2445711.791667,29.6650,-93.4789,0037,0.2600
1984-01-12 07:30:00 UTC,2445711.812500,29.6650,-93.4789,0037,0.2590
1984-01-12 08:00:00 UTC,2445711.833333,29.6650,-93.4789,0037,0.2590
1984-01-12 08:30:00 UTC,2445711.854167,29.6650,-93.4789,0037,0.2590
1984-01-12 09:00:00 UTC,2445711.875000,29.6650,-93.4789,0037,0.2580
1984-01-12 09:30:00 UTC,2445711.895833,29.6650,-93.4789,0037,0.2580
1984-01-12 10:00:00 UTC,2445711.916667,29.6650,-93.4789,0037,0.2580
1984-01-12 10:30:00 UTC,2445711.937500,29.6650,-93.4789,0037,0.2580
1984-01-12 11:00:00 UTC,2445711.958333,29.6650,-93.4789,0037,0.2580
1984-01-12 11:30:00 UTC,2445711.979167,29.6650,-93.4789,0037,0.2580
1984-01-12 12:00:00 UTC,2445712.000000,29.6650,-93.4789,0037,0.2580
1984-01-12 12:30:00 UTC,2445712.020833,29.6650,-93.4789,0037,0.2580
1984-01-12 13:00:00 UTC,2445712.041667,29.6650,-93.4789,0037,0.2580
1984-01-12 13:30:00 UTC,2445712.062500,29.6650,-93.4789,0037,0.2560
1984-01-12 14:00:00 UTC,2445712.083333,29.6650,-93.4789,0037,0.2550
1984-01-12 14:30:00 UTC,2445712.104167,29.6650,-93.4789,0037,0.2550
1984-01-12 15:00:00 UTC,2445712.125000,29.6650,-93.4789,0037,0.2540
1984-01-12 15:30:00 UTC,2445712.145833,29.6650,-93.4789,0037,0.2540
1984-01-12 16:00:00 UTC,2445712.166667,29.6650,-93.4789,0037,0.2550
1984-01-12 16:30:00 UTC,2445712.187500,29.6650,-93.4789,0037,0.2560
1984-01-12 17:00:00 UTC,2445712.208333,29.6650,-93.4789,0037,0.2570
1984-01-12 17:30:00 UTC,2445712.229167,29.6650,-93.4789,0037,0.2570
1984-01-12 18:00:00 UTC,2445712.250000,29.6650,-93.4789,0037,0.2560
1984-01-12 18:30:00 UTC,2445712.270833,29.6650,-93.4789,0037,0.2560
1984-01-12 19:00:00 UTC,2445712.291667,29.6650,-93.4789,0037,0.2560
1984-01-12 19:30:00 UTC,2445712.312500,29.6650,-93.4789,0037,0.2560
1984-01-12 20:00:00 UTC,2445712.333333,29.6650,-93.4789,0037,0.2560
1984-01-12 20:30:00 UTC,2445712.354167,29.6650,-93.4789,0037,0.2560
1984-01-12 21:00:00 UTC,2445712.375000,29.6650,-93.4789,0037,0.2570
1984-01-12 21:30:00 UTC,2445712.395833,29.6650,-93.4789,0037,0.2570
1984-01-12 22:00:00 UTC,2445712.416667,29.6650,-93.4789,0037,0.2570
1984-01-12 22:30:00 UTC,2445712.437500,29.6650,-93.4789,0037,0.2570
1984-01-12 23:00:00 UTC,2445712.458333,29.6650,-93.4789,0037,0.2570
1984-01-12 23:30:00 UTC,2445712.479167,29.6650,-93.4789,0037,0.2580
1984-01-13 00:00:00 UTC,2445712.500000,29.6650,-93.4789,0037,0.2580
1984-01-13 00:30:00 UTC,2445712.520833,29.6650,-93.4789,0037,0.2580
1984-01-13 01:00:00 UTC,2445712.541667,29.6650,-93.4789,0037,0.2580
1984-01-13 01:30:00 UTC,2445712.562500,29.6650,-93.4789,0037,0.2570
1984-01-13 02:00:00 UTC,2445712.583333,29.6650,-93.4789,0037,0.2560
1984-01-13 02:30:00 UTC,2445712.604167,29.6650,-93.4789,0037,0.2560
1984-01-13 03:00:00 UTC,2445712.625000,29.6650,-93.4789,0037,0.2560
1984-01-13 03:30:00 UTC,2445712.645833,29.6650,-93.4789,0037,0.2560
1984-01-13 04:00:00 UTC,2445712.666667,29.6650,-93.4789,0037,0.2560
1984-01-13 04:30:00 UTC,2445712.687500,29.6650,-93.4789,0037,0.2560
1984-01-13 05:00:00 UTC,2445712.708333,29.6650,-93.4789,0037,0.2560
1984-01-13 05:30:00 UTC,2445712.729167,29.6650,-93.4789,0037,0.2550
1984-01-13 06:00:00 UTC,2445712.750000,29.6650,-93.4789,0037,0.2550
1984-01-13 06:30:00 UTC,2445712.770833,29.6650,-93.4789,0037,0.2540
1984-01-13 07:00:00 UTC,2445712.791667,29.6650,-93.4789,0037,0.2540
1984-01-13 07:30:00 UTC,2445712.812500,29.6650,-93.4789,0037,0.2550
1984-01-13 08:00:00 UTC,2445712.833333,29.6650,-93.4789,0037,0.2550
1984-01-13 08:30:00 UTC,2445712.854167,29.6650,-93.4789,0037,0.2540
1984-01-13 09:00:00 UTC,2445712.875000,29.6650,-93.4789,0037,0.2540
1984-01-13 09:30:00 UTC,2445712.895833,29.6650,-93.4789,0037,0.2530
1984-01-13 10:00:00 UTC,2445712.916667,29.6650,-93.4789,0037,0.2530
1984-01-13 10:30:00 UTC,2445712.937500,29.6650,-93.4789,0037,0.2520
1984-01-13 11:00:00 UTC,2445712.958333,29.6650,-93.4789,0037,0.2520
1984-01-13 11:30:00 UTC,2445712.979167,29.6650,-93.4789,0037,0.2510
1984-01-13 12:00:00 UTC,2445713.000000,29.6650,-93.4789,0037,0.2510
1984-01-13 12:30:00 UTC,2445713.020833,29.6650,-93.4789,0037,0.2510
1984-01-13 13:00:00 UTC,2445713.041667,29.6650,-93.4789,0037,0.2510
1984-01-13 13:30:00 UTC,2445713.062500,29.6650,-93.4789,0037,0.2510
1984-01-13 14:00:00 UTC,2445713.083333,29.6650,-93.4789,0037,0.2510
1984-01-13 14:30:00 UTC,2445713.104167,29.6650,-93.4789,0037,0.2510
1984-01-13 15:00:00 UTC,2445713.125000,29.6650,-93.4789,0037,0.2510
1984-01-13 15:30:00 UTC,2445713.145833,29.6650,-93.4789,0037,0.2510
1984-01-13 16:00:00 UTC,2445713.166667,29.6650,-93.4789,0037,0.2510
1984-01-13 16:30:00 UTC,2445713.187500,29.6650,-93.4789,0037,0.2510
1984-01-13 17:00:00 UTC,2445713.208333,29.6650,-93.4789,0037,0.2510
1984-01-13 17:30:00 UTC,2445713.229167,29.6650,-93.4789,0037,0.2510
1984-01-13 18:00:00 UTC,2445713.250000,29.6650,-93.4789,0037,0.2510
1984-01-13 18:30:00 UTC,2445713.270833,29.6650,-93.4789,0037,0.2500
1984-01-13 19:00:00 UTC,2445713.291667,29.6650,-93.4789,0037,0.2490
1984-01-13 19:30:00 UTC,2445713.312500,29.6650,-93.4789,0037,0.2480
1984-01-13 20:00:00 UTC,2445713.333333,29.6650,-93.4789,0037,0.2480
1984-01-13 20:30:00 UTC,2445713.354167,29.6650,-93.4789,0037,0.2480
1984-01-13 21:00:00 UTC,2445713.375000,29.6650,-93.4789,0037,0.2480
1984-01-13 21:30:00 UTC,2445713.395833,29.6650,-93.4789,0037,0.2480
1984-01-13 22:00:00 UTC,2445713.416667,29.6650,-93.4789,0037,0.2480
1984-01-13 22:30:00 UTC,2445713.437500,29.6650,-93.4789,0037,0.2480
1984-01-13 23:00:00 UTC,2445713.458333,29.6650,-93.4789,0037,0.2480
1984-01-13 23:30:00 UTC,2445713.479167,29.6650,-93.4789,0037,0.2480
1984-01-14 00:00:00 UTC,2445713.500000,29.6650,-93.4789,0037,0.2470
1984-01-14 00:30:00 UTC,2445713.520833,29.6650,-93.4789,0037,0.2470
1984-01-14 01:00:00 UTC,2445713.541667,29.6650,-93.4789,0037,0.2470
1984-01-14 01:30:00 UTC,2445713.562500,29.6650,-93.4789,0037,0.2460
1984-01-14 02:00:00 UTC,2445713.583333,29.6650,-93.4789,0037,0.2450
1984-01-14 02:30:00 UTC,2445713.604167,29.6650,-93.4789,0037,0.2440
1984-01-14 03:00:00 UTC,2445713.625000,29.6650,-93.4789,0037,0.2420
1984-01-14 03:30:00 UTC,2445713.645833,29.6650,-93.4789,0037,0.2420
1984-01-14 04:00:00 UTC,2445713.666667,29.6650,-93.4789,0037,0.2420
1984-01-14 04:30:00 UTC,2445713.687500,29.6650,-93.4789,0037,0.2420
1984-01-14 05:00:00 UTC,2445713.708333,29.6650,-93.4789,0037,0.2420
1984-01-14 05:30:00 UTC,2445713.729167,29.6650,-93.4789,0037,0.2430
1984-01-14 06:00:00 UTC,2445713.750000,29.6650,-93.4789,0037,0.2430
1984-01-14 06:30:00 UTC,2445713.770833,29.6650,-93.4789,0037,0.2440
1984-01-14 07:00:00 UTC,2445713.791667,29.6650,-93.4789,0037,0.2440
1984-01-14 07:30:00 UTC,2445713.812500,29.6650,-93.4789,0037,0.2450
1984-01-14 08:00:00 UTC,2445713.833333,29.6650,-93.4789,0037,0.2450
1984-01-14 08:30:00 UTC,2445713.854167,29.6650,-93.4789,0037,0.2450
1984-01-14 09:00:00 UTC,2445713.875000,29.6650,-93.4789,0037,0.2450
1984-01-14 09:30:00 UTC,2445713.895833,29.6650,-93.4789,0037,0.2450
1984-01-14 10:00:00 UTC,2445713.916667,29.6650,-93.4789,0037,0.2440
1984-01-14 10:30:00 UTC,2445713.937500,29.6650,-93.4789,0037,0.2440
1984-01-14 11:00:00 UTC,2445713.958333,29.6650,-93.4789,0037,0.2440
1984-01-14 11:30:00 UTC,2445713.979167,29.6650,-93.4789,0037,0.2440
1984-01-14 12:00:00 UTC,2445714.000000,29.6650,-93.4789,0037,0.2440
1984-01-14 12:30:00 UTC,2445714.020833,29.6650,-93.4789,0037,0.2450
1984-01-14 13:00:00 UTC,2445714.041667,29.6650,-93.4789,0037,0.2450
1984-01-14 13:30:00 UTC,2445714.062500,29.6650,-93.4789,0037,0.2450
1984-01-14 14:00:00 UTC,2445714.083333,29.6650,-93.4789,0037,0.2450
1984-01-14 14:30:00 UTC,2445714.104167,29.6650,-93.4789,0037,0.2450
1984-01-14 15:00:00 UTC,2445714.125000,29.6650,-93.4789,0037,0.2450
1984-01-14 15:30:00 UTC,2445714.145833,29.6650,-93.4789,0037,0.2460
1984-01-14 16:00:00 UTC,2445714.166667,29.6650,-93.4789,0037,0.2460
1984-01-14 16:30:00 UTC,2445714.187500,29.6650,-93.4789,0037,0.2460
1984-01-14 17:00:00 UTC,2445714.208333,29.6650,-93.4789,0037,0.2460
1984-01-14 17:30:00 UTC,2445714.229167,29.6650,-93.4789,0037,0.2460
1984-01-14 18:00:00 UTC,2445714.250000,29.6650,-93.4789,0037,0.2460
1984-01-14 18:30:00 UTC,2445714.270833,29.6650,-93.4789,0037,0.2460
1984-01-14 19:00:00 UTC,2445714.291667,29.6650,-93.4789,0037,0.2470
1984-01-14 19:30:00 UTC,2445714.312500,29.6650,-93.4789,0037,0.2470
1984-01-14 20:00:00 UTC,2445714.333333,29.6650,-93.4789,0037,0.2470
1984-01-14 20:30:00 UTC,2445714.354167,29.6650,-93.4789,0037,0.2470
1984-01-14 21:00:00 UTC,2445714.375000,29.6650,-93.4789,0037,0.2460
1984-01-14 21:30:00 UTC,2445714.395833,29.6650,-93.4789,0037,0.2470
1984-01-14 22:00:00 UTC,2445714.416667,29.6650,-93.4789,0037,0.2480
1984-01-14 22:30:00 UTC,2445714.437500,29.6650,-93.4789,0037,0.2480
1984-01-14 23:00:00 UTC,2445714.458333,29.6650,-93.4789,0037,0.2480
1984-01-14 23:30:00 UTC,2445714.479167,29.6650,-93.4789,0037,0.2480
1984-01-15 00:00:00 UTC,2445714.500000,29.6650,-93.4789,0037,0.2480
1984-01-15 00:30:00 UTC,2445714.520833,29.6650,-93.4789,0037,0.2480